Regional Weather Roundup
Issued by NWS

Home | Current Version | Previous Version | Graphics & Text | Print | Product List | Glossary On
Versions: 1 2 3 4 5 6 7 8 9 10 11 12 13 14 15 16 17 18 19 20 21 22 23 24 25 26 27 28 29 30 31 32 33 34 35 36 37 38 39 40 41 42 43 44 45 46 47 48 49 50
000
ASUS44 KMEG 171610
RWRTN
TENNESSEE HOURLY STATE WEATHER ROUNDUP
NATIONAL WEATHER SERVICE MEMPHIS TN
1100 AM CDT THU AUG 17 2017

TNZ002-004-019-021-049-052-054-088>092-171700-
WEST TENNESSEE

CITY           SKY/WX    TMP DP  RH WIND       PRES   REMARKS
MEMPHIS INTL   CLOUDY    85  77  77 SW14G21   30.00F HX  95
NWS MEMPHIS      N/A     84 N/A N/A MISG        N/A
JACKSON        CLOUDY    80  78  94 S9        30.02S
DYERSBURG      CLOUDY    82  77  84 VRB7      29.97F HX  90
COVINGTON      CLOUDY    82  77  83 SW13G18   29.98F HX  91
UNION CITY     PTSUNNY   82  77  83 SW8G14    29.96F HX  91
PARIS          CLOUDY    81  75  83 SW12G22   29.99S
LEXINGTON      CLOUDY    81  75  83 SW12      30.03S
SELMER         CLOUDY    79  75  89 SW7       30.04S
SAVANNAH       CLOUDY    81  75  83 SW9       30.04F
$$

TNZ008-025-027-028-033-062-065-066-171700-
NORTH MIDDLE TENNESSEE

CITY           SKY/WX    TMP DP  RH WIND       PRES   REMARKS
NASHVILLE      MOSUNNY   85  73  67 W10       30.04S HX  91
PORTLAND       MOSUNNY   86  75  70 S14       30.01S HX  95
CLARKSVILLE    CLOUDY    82  73  74 SW13G20   30.00F
SMYRNA         PTSUNNY   84  74  71 SW12      30.05S HX  91
COOKEVILLE     MOSUNNY   84  73  70 SW10      30.06S HX  91
GALLATIN       MOSUNNY   86  73  66 S8G17     30.04F HX  93
CROSSVILLE     PTSUNNY   81  71  71 SW9       30.12S
$$

TNZ061-075-076-078-094-096-097-171700-
SOUTH MIDDLE TENNESSEE

CITY           SKY/WX    TMP DP  RH WIND       PRES   REMARKS
FAYETTEVILLE   PTSUNNY   82  73  74 W10G17    30.09S
TULLAHOMA      PTSUNNY   81  70  69 SW10      30.10S
WINCHESTER     MOSUNNY   82  73  74 SW7       30.09F
MCMINNVILLE    PTSUNNY   84  75  74 S9        30.08S HX  92
COLUMBIA       PTSUNNY   82  75  78 SW13G21   30.04S
SHELBYVILLE    CLOUDY    82  73  74 SW12      30.08R
$$

TNZ017-018-042-046-047-171700-
NORTHEAST TENNESSEE

CITY           SKY/WX    TMP DP  RH WIND       PRES   REMARKS
TRI CITIES     PTSUNNY   82  73  74 CALM      30.10F
ELIZABETHTON   MOSUNNY   82  72  69 CALM      30.10F
$$

TNZ012-013-036-069-073-074-171700-
CENTRAL EAST TENNESSEE

CITY           SKY/WX    TMP DP  RH WIND       PRES   REMARKS
KNOXVILLE      PTSUNNY   82  73  74 SW9       30.07S
OAK RIDGE      MOSUNNY   85  72  65 VRB5      30.08S HX  91
DOWNTOWN KNOXV PTSUNNY   84  75  74 W6        30.06S HX  92
GATLINBURG     SUNNY     86  73  66 SW9       30.07F HX  93
MORRISTOWN     CLOUDY    81  73  78 W8        30.09S
JACKSBORO      MOSUNNY   82  75  78 CALM      30.10
$$

TNZ083-085-099-171700-
SOUTHEAST TENNESSEE

CITY           SKY/WX    TMP DP  RH WIND       PRES   REMARKS
CHATTANOOGA    PTSUNNY   86  72  62 SW8       30.08S HX  92
DAYTON         MOSUNNY   86  77  74 SW7       30.06S HX  97
$$

SKY/WX REPORTED AS FAIR MEANS FEW OR NO CLOUDS BELOW
12 THOUSAND FEET.





USA.gov is the U.S. government's official web portal to all federal, state and local government web resources and services.